Time,TemperatureF,DewpointF,PressureIn,WindDirection,WindDirectionDegrees,WindSpeedMPH,WindSpeedGustMPH,Humidity,HourlyPrecipIn,Conditions,Clouds,dailyrainin,SoftwareType,DateUTC
2013-05-03 00:00:00,55.8,49.3,30.27,SE,135,0.0,0.0,79,0.00,,,0.00,WUHU216HW,2013-05-03 04:00:00,
2013-05-03 00:01:00,55.8,49.3,30.27,SE,135,0.0,0.0,79,0.00,,,0.00,WUHU216HW,2013-05-03 04:01:00,
2013-05-03 00:06:00,55.8,49.3,30.27,SE,135,0.0,0.0,79,0.00,,,0.00,WUHU216HW,2013-05-03 04:06:00,
2013-05-03 00:30:00,55.4,48.6,30.26,SW,225,0.0,0.0,78,0.00,,,0.00,WUHU216HW,2013-05-03 04:30:00,
2013-05-03 00:35:00,55.4,48.6,30.26,SW,225,0.0,0.0,78,0.00,,,0.00,WUHU216HW,2013-05-03 04:35:00,
2013-05-03 01:00:00,54.9,48.2,30.27,SSW,203,0.0,0.0,78,0.00,,,0.00,WUHU216HW,2013-05-03 05:00:00,
2013-05-03 01:05:00,54.9,48.2,30.27,SSW,203,0.0,0.0,78,0.00,,,0.00,WUHU216HW,2013-05-03 05:05:00,
2013-05-03 01:30:00,54.4,47.6,30.26,SW,225,0.0,0.0,78,0.00,,,0.00,WUHU216HW,2013-05-03 05:30:00,
2013-05-03 01:35:00,54.4,47.6,30.26,SW,225,0.0,0.0,78,0.00,,,0.00,WUHU216HW,2013-05-03 05:35:00,
2013-05-03 01:59:00,54.0,47.4,30.25,WSW,248,0.4,0.4,78,0.00,,,0.00,WUHU216HW,2013-05-03 05:59:00,
2013-05-03 02:00:00,54.0,47.4,30.25,WSW,248,0.4,0.4,78,0.00,,,0.00,WUHU216HW,2013-05-03 06:00:00,
2013-05-03 02:05:00,54.0,47.4,30.25,WSW,248,0.4,0.4,78,0.00,,,0.00,WUHU216HW,2013-05-03 06:05:00,
2013-05-03 02:30:00,53.6,47.0,30.24,South,180,0.0,0.0,78,0.00,,,0.00,WUHU216HW,2013-05-03 06:30:00,
2013-05-03 02:35:00,53.6,47.0,30.24,South,180,0.0,0.0,78,0.00,,,0.00,WUHU216HW,2013-05-03 06:35:00,
2013-05-03 02:59:00,53.1,46.4,30.24,WSW,248,0.0,0.0,78,0.00,,,0.00,WUHU216HW,2013-05-03 06:59:00,
2013-05-03 03:00:00,53.1,46.4,30.24,WSW,248,0.0,0.0,78,0.00,,,0.00,WUHU216HW,2013-05-03 07:00:00,
2013-05-03 03:05:00,53.1,46.4,30.24,WSW,248,0.0,0.0,78,0.00,,,0.00,WUHU216HW,2013-05-03 07:05:00,
2013-05-03 03:30:00,52.4,46.1,30.23,WSW,248,0.0,0.0,79,0.00,,,0.00,WUHU216HW,2013-05-03 07:30:00,
2013-05-03 03:35:00,52.4,46.1,30.23,WSW,248,0.0,0.0,79,0.00,,,0.00,WUHU216HW,2013-05-03 07:35:00,
2013-05-03 03:59:00,52.2,45.9,30.23,West,270,0.0,0.0,79,0.00,,,0.00,WUHU216HW,2013-05-03 07:59:00,
2013-05-03 04:00:00,52.2,45.9,30.23,West,270,0.0,0.0,79,0.00,,,0.00,WUHU216HW,2013-05-03 08:00:00,
2013-05-03 04:05:00,52.2,45.9,30.23,West,270,0.0,0.0,79,0.00,,,0.00,WUHU216HW,2013-05-03 08:05:00,
2013-05-03 04:30:00,51.7,45.4,30.22,NW,315,0.8,0.8,79,0.00,,,0.00,WUHU216HW,2013-05-03 08:30:00,
2013-05-03 04:35:00,51.7,45.4,30.22,NW,315,0.8,0.8,79,0.00,,,0.00,WUHU216HW,2013-05-03 08:35:00,
2013-05-03 04:59:00,51.3,45.0,30.23,West,270,0.0,0.0,79,0.00,,,0.00,WUHU216HW,2013-05-03 08:59:00,
2013-05-03 05:00:00,51.3,45.0,30.23,West,270,0.0,0.0,79,0.00,,,0.00,WUHU216HW,2013-05-03 09:00:00,
2013-05-03 05:05:00,51.3,45.0,30.23,West,270,0.0,0.0,79,0.00,,,0.00,WUHU216HW,2013-05-03 09:05:00,
2013-05-03 05:30:00,51.1,45.2,30.23,WSW,248,0.0,0.0,80,0.00,,,0.00,WUHU216HW,2013-05-03 09:30:00,
2013-05-03 05:35:00,51.1,45.2,30.23,WSW,248,0.0,0.0,80,0.00,,,0.00,WUHU216HW,2013-05-03 09:35:00,
2013-05-03 06:00:00,50.8,44.8,30.23,WNW,293,0.0,0.0,80,0.00,,,0.00,WUHU216HW,2013-05-03 10:00:00,
2013-05-03 06:05:00,50.8,44.8,30.23,WNW,293,0.0,0.0,80,0.00,,,0.00,WUHU216HW,2013-05-03 10:05:00,
2013-05-03 06:30:00,50.4,44.5,30.23,North,0,0.0,0.0,80,0.00,,,0.00,WUHU216HW,2013-05-03 10:30:00,
2013-05-03 06:35:00,50.4,44.5,30.23,North,0,0.0,0.0,80,0.00,,,0.00,WUHU216HW,2013-05-03 10:35:00,
2013-05-03 07:00:00,50.4,44.5,30.24,West,270,0.8,0.8,80,0.00,,,0.00,WUHU216HW,2013-05-03 11:00:00,
2013-05-03 07:05:00,50.4,44.5,30.24,West,270,0.8,0.8,80,0.00,,,0.00,WUHU216HW,2013-05-03 11:05:00,
2013-05-03 07:30:00,50.8,45.1,30.25,NW,315,0.8,0.8,81,0.00,,,0.00,WUHU216HW,2013-05-03 11:30:00,
2013-05-03 07:35:00,50.8,45.1,30.25,NW,315,0.8,0.8,81,0.00,,,0.00,WUHU216HW,2013-05-03 11:35:00,
2013-05-03 08:00:00,51.3,45.4,30.25,West,270,1.8,1.8,80,0.00,,,0.00,WUHU216HW,2013-05-03 12:00:00,
2013-05-03 08:05:00,51.3,45.4,30.25,West,270,1.8,1.8,80,0.00,,,0.00,WUHU216HW,2013-05-03 12:05:00,
2013-05-03 08:30:00,52.6,46.6,30.26,ENE,68,0.4,0.4,80,0.00,,,0.00,WUHU216HW,2013-05-03 12:30:00,
2013-05-03 08:35:00,52.6,46.6,30.26,ENE,68,0.4,0.4,80,0.00,,,0.00,WUHU216HW,2013-05-03 12:35:00,
2013-05-03 08:59:00,54.2,47.5,30.26,North,0,0.0,0.0,78,0.00,,,0.00,WUHU216HW,2013-05-03 12:59:00,
2013-05-03 09:00:00,54.2,47.5,30.26,North,0,0.0,0.0,78,0.00,,,0.00,WUHU216HW,2013-05-03 13:00:00,
2013-05-03 09:05:00,54.2,47.5,30.26,North,0,0.0,0.0,78,0.00,,,0.00,WUHU216HW,2013-05-03 13:05:00,
2013-05-03 09:29:00,56.3,49.1,30.26,NE,45,2.2,2.2,77,0.00,,,0.00,WUHU216HW,2013-05-03 13:29:00,
2013-05-03 09:30:00,56.3,49.1,30.26,NE,45,2.2,2.2,77,0.00,,,0.00,WUHU216HW,2013-05-03 13:30:00,
2013-05-03 09:35:00,56.3,49.1,30.26,NE,45,2.2,2.2,77,0.00,,,0.00,WUHU216HW,2013-05-03 13:35:00,
2013-05-03 09:59:00,58.0,49.7,30.26,NNE,23,3.6,3.6,74,0.00,,,0.00,WUHU216HW,2013-05-03 13:59:00,
2013-05-03 10:00:00,58.0,49.7,30.26,NNE,23,3.6,3.6,74,0.00,,,0.00,WUHU216HW,2013-05-03 14:00:00,
2013-05-03 10:05:00,58.0,49.7,30.26,NNE,23,3.6,3.6,74,0.00,,,0.00,WUHU216HW,2013-05-03 14:05:00,
2013-05-03 10:29:00,59.6,50.9,30.27,NNW,338,0.4,0.4,73,0.00,,,0.00,WUHU216HW,2013-05-03 14:29:00,
2013-05-03 10:30:00,59.6,50.9,30.27,NNW,338,0.4,0.4,73,0.00,,,0.00,WUHU216HW,2013-05-03 14:30:00,
2013-05-03 10:35:00,59.6,50.9,30.27,NNW,338,0.4,0.4,73,0.00,,,0.00,WUHU216HW,2013-05-03 14:35:00,
2013-05-03 11:00:00,60.7,51.7,30.27,NNE,23,1.4,1.4,72,0.00,,,0.00,WUHU216HW,2013-05-03 15:00:00,
2013-05-03 11:05:00,60.8,51.8,30.27,NE,45,0.8,1.4,72,0.00,,,0.00,WUHU216HW,2013-05-03 15:05:00,
2013-05-03 11:30:00,62.5,52.6,30.27,NNW,338,0.8,0.8,70,0.00,,,0.00,WUHU216HW,2013-05-03 15:30:00,
2013-05-03 11:31:00,62.5,52.6,30.27,NNW,338,0.8,0.8,70,0.00,,,0.00,WUHU216HW,2013-05-03 15:31:00,
2013-05-03 11:36:00,62.5,52.6,30.27,NNW,338,0.8,0.8,70,0.00,,,0.00,WUHU216HW,2013-05-03 15:36:00,
2013-05-03 12:00:00,64.1,52.0,30.27,SSW,203,1.4,1.4,65,0.00,,,0.00,WUHU216HW,2013-05-03 16:00:00,
2013-05-03 12:01:00,64.1,52.0,30.27,SSW,203,1.4,1.4,65,0.00,,,0.00,WUHU216HW,2013-05-03 16:01:00,
2013-05-03 12:06:00,64.1,52.0,30.27,SSW,203,1.4,1.4,65,0.00,,,0.00,WUHU216HW,2013-05-03 16:06:00,
2013-05-03 12:30:00,64.3,52.7,30.26,North,0,0.4,0.4,66,0.00,,,0.00,WUHU216HW,2013-05-03 16:30:00,
2013-05-03 12:31:00,64.3,52.7,30.26,North,0,0.4,0.4,66,0.00,,,0.00,WUHU216HW,2013-05-03 16:31:00,
2013-05-03 12:36:00,64.3,52.7,30.26,North,0,0.4,0.4,66,0.00,,,0.00,WUHU216HW,2013-05-03 16:36:00,
2013-05-03 13:00:00,66.6,52.7,30.24,NE,45,0.8,0.8,61,0.00,,,0.00,WUHU216HW,2013-05-03 17:00:00,
2013-05-03 13:01:00,66.6,52.7,30.24,NE,45,0.8,0.8,61,0.00,,,0.00,WUHU216HW,2013-05-03 17:01:00,
2013-05-03 13:06:00,66.6,52.7,30.24,NE,45,0.8,0.8,61,0.00,,,0.00,WUHU216HW,2013-05-03 17:06:00,
2013-05-03 13:30:00,66.8,52.9,30.23,North,0,2.6,2.6,61,0.00,,,0.00,WUHU216HW,2013-05-03 17:30:00,
2013-05-03 13:31:00,66.8,52.9,30.23,North,0,2.6,2.6,61,0.00,,,0.00,WUHU216HW,2013-05-03 17:31:00,
2013-05-03 13:36:00,66.8,52.9,30.23,North,0,2.6,2.6,61,0.00,,,0.00,WUHU216HW,2013-05-03 17:36:00,
2013-05-03 14:00:00,67.3,53.0,30.22,North,0,0.0,0.0,60,0.00,,,0.00,WUHU216HW,2013-05-03 18:00:00,
2013-05-03 14:01:00,67.3,53.0,30.22,North,0,0.0,0.0,60,0.00,,,0.00,WUHU216HW,2013-05-03 18:01:00,
2013-05-03 14:06:00,67.3,53.0,30.22,North,0,0.0,0.0,60,0.00,,,0.00,WUHU216HW,2013-05-03 18:06:00,
2013-05-03 14:30:00,67.7,52.8,30.21,NW,315,1.8,1.8,59,0.00,,,0.00,WUHU216HW,2013-05-03 18:30:00,
2013-05-03 14:31:00,67.7,52.8,30.21,NW,315,1.8,1.8,59,0.00,,,0.00,WUHU216HW,2013-05-03 18:31:00,
2013-05-03 14:36:00,67.7,52.8,30.21,NW,315,1.8,1.8,59,0.00,,,0.00,WUHU216HW,2013-05-03 18:36:00,
2013-05-03 15:00:00,66.6,52.7,30.20,South,180,2.6,2.6,61,0.00,,,0.00,WUHU216HW,2013-05-03 19:00:00,
2013-05-03 15:05:00,66.6,52.7,30.20,South,180,2.6,2.6,61,0.00,,,0.00,WUHU216HW,2013-05-03 19:05:00,
2013-05-03 15:30:00,66.6,53.2,30.20,SW,225,0.8,0.8,62,0.00,,,0.00,WUHU216HW,2013-05-03 19:30:00,
2013-05-03 15:31:00,66.6,53.2,30.20,SW,225,0.8,0.8,62,0.00,,,0.00,WUHU216HW,2013-05-03 19:31:00,
2013-05-03 15:36:00,66.6,53.2,30.20,SW,225,0.8,0.8,62,0.00,,,0.00,WUHU216HW,2013-05-03 19:36:00,
2013-05-03 15:59:00,66.2,52.5,30.19,WSW,248,1.4,1.4,61,0.00,,,0.00,WUHU216HW,2013-05-03 19:59:00,
2013-05-03 16:00:00,66.2,52.5,30.19,WSW,248,1.4,1.4,61,0.00,,,0.00,WUHU216HW,2013-05-03 20:00:00,
2013-05-03 16:05:00,66.2,52.5,30.19,WSW,248,1.4,1.4,61,0.00,,,0.00,WUHU216HW,2013-05-03 20:05:00,
2013-05-03 16:30:00,66.8,53.4,30.18,ENE,68,2.2,2.2,62,0.00,,,0.00,WUHU216HW,2013-05-03 20:30:00,
2013-05-03 16:31:00,66.8,53.4,30.18,ENE,68,2.2,2.2,62,0.00,,,0.00,WUHU216HW,2013-05-03 20:31:00,
2013-05-03 16:36:00,66.8,53.4,30.18,ENE,68,2.2,2.2,62,0.00,,,0.00,WUHU216HW,2013-05-03 20:36:00,
2013-05-03 16:59:00,66.1,53.5,30.18,WNW,293,0.8,0.8,64,0.00,,,0.00,WUHU216HW,2013-05-03 20:59:00,
2013-05-03 17:00:00,66.1,53.5,30.18,WNW,293,0.8,0.8,64,0.00,,,0.00,WUHU216HW,2013-05-03 21:00:00,
2013-05-03 17:05:00,66.1,53.5,30.18,WNW,293,0.8,0.8,64,0.00,,,0.00,WUHU216HW,2013-05-03 21:05:00,
2013-05-03 17:30:00,65.3,52.8,30.18,South,180,0.0,0.0,64,0.00,,,0.00,WUHU216HW,2013-05-03 21:30:00,
2013-05-03 17:31:00,65.3,52.8,30.18,South,180,0.0,0.0,64,0.00,,,0.00,WUHU216HW,2013-05-03 21:31:00,
2013-05-03 17:36:00,65.3,52.8,30.18,South,180,0.0,0.0,64,0.00,,,0.00,WUHU216HW,2013-05-03 21:36:00,
2013-05-03 17:59:00,64.6,52.6,30.17,ENE,68,1.8,1.8,65,0.00,,,0.00,WUHU216HW,2013-05-03 21:59:00,
2013-05-03 18:00:00,64.6,52.6,30.17,ENE,68,1.8,1.8,65,0.00,,,0.00,WUHU216HW,2013-05-03 22:00:00,
2013-05-03 18:05:00,64.6,52.6,30.17,ENE,68,1.8,1.8,65,0.00,,,0.00,WUHU216HW,2013-05-03 22:05:00,
2013-05-03 18:30:00,64.3,51.0,30.17,NNW,338,0.4,0.4,62,0.00,,,0.00,WUHU216HW,2013-05-03 22:30:00,
2013-05-03 18:31:00,64.3,51.0,30.17,NNW,338,0.4,0.4,62,0.00,,,0.00,WUHU216HW,2013-05-03 22:31:00,
2013-05-03 18:36:00,64.3,51.0,30.17,NNW,338,0.4,0.4,62,0.00,,,0.00,WUHU216HW,2013-05-03 22:36:00,
2013-05-03 18:59:00,63.5,49.4,30.17,WSW,248,1.4,1.4,60,0.00,,,0.00,WUHU216HW,2013-05-03 22:59:00,
2013-05-03 19:00:00,63.5,49.4,30.17,WSW,248,1.4,1.4,60,0.00,,,0.00,WUHU216HW,2013-05-03 23:00:00,
2013-05-03 19:05:00,63.5,49.4,30.17,WSW,248,1.4,1.4,60,0.00,,,0.00,WUHU216HW,2013-05-03 23:05:00,
2013-05-03 19:30:00,62.8,48.8,30.18,NNE,23,0.4,0.4,60,0.00,,,0.00,WUHU216HW,2013-05-03 23:30:00,
2013-05-03 19:31:00,62.8,48.8,30.18,NNE,23,0.4,0.4,60,0.00,,,0.00,WUHU216HW,2013-05-03 23:31:00,
2013-05-03 19:36:00,62.8,48.8,30.18,NNE,23,0.4,0.4,60,0.00,,,0.00,WUHU216HW,2013-05-03 23:36:00,
2013-05-03 19:59:00,62.1,48.2,30.19,West,270,1.8,1.8,60,0.00,,,0.00,WUHU216HW,2013-05-03 23:59:00,
2013-05-03 20:00:00,62.1,48.2,30.19,West,270,1.8,1.8,60,0.00,,,0.00,WUHU216HW,2013-05-04 00:00:00,
2013-05-03 20:05:00,62.1,48.2,30.19,West,270,1.8,1.8,60,0.00,,,0.00,WUHU216HW,2013-05-04 00:05:00,
2013-05-03 20:29:00,60.7,45.4,30.20,NNW,338,1.4,1.4,57,0.00,,,0.00,WUHU216HW,2013-05-04 00:29:00,
2013-05-03 20:31:00,60.7,45.4,30.20,NNW,338,1.4,1.4,57,0.00,,,0.00,WUHU216HW,2013-05-04 00:31:00,
2013-05-03 20:36:00,60.7,45.4,30.20,NNW,338,1.4,1.4,57,0.00,,,0.00,WUHU216HW,2013-05-04 00:36:00,
2013-05-03 20:59:00,59.8,44.9,30.21,ENE,68,1.4,1.4,58,0.00,,,0.00,WUHU216HW,2013-05-04 00:59:00,
2013-05-03 21:00:00,59.8,44.9,30.21,ENE,68,1.4,1.4,58,0.00,,,0.00,WUHU216HW,2013-05-04 01:00:00,
2013-05-03 21:05:00,59.8,44.9,30.21,ENE,68,1.4,1.4,58,0.00,,,0.00,WUHU216HW,2013-05-04 01:05:00,
2013-05-03 21:29:00,58.7,43.9,30.21,ENE,68,0.4,0.4,58,0.00,,,0.00,WUHU216HW,2013-05-04 01:29:00,
2013-05-03 21:31:00,58.7,43.9,30.21,ENE,68,0.4,0.4,58,0.00,,,0.00,WUHU216HW,2013-05-04 01:31:00,
2013-05-03 21:36:00,58.7,43.9,30.21,ENE,68,0.4,0.4,58,0.00,,,0.00,WUHU216HW,2013-05-04 01:36:00,
2013-05-03 21:59:00,57.6,43.9,30.23,North,0,0.8,0.8,60,0.00,,,0.00,WUHU216HW,2013-05-04 01:59:00,
2013-05-03 22:00:00,57.6,43.9,30.23,North,0,0.8,0.8,60,0.00,,,0.00,WUHU216HW,2013-05-04 02:00:00,
2013-05-03 22:05:00,57.6,43.9,30.23,North,0,0.8,0.8,60,0.00,,,0.00,WUHU216HW,2013-05-04 02:05:00,
2013-05-03 22:30:00,56.3,42.2,30.23,WNW,293,2.6,2.6,59,0.00,,,0.00,WUHU216HW,2013-05-04 02:30:00,
2013-05-03 22:31:00,56.3,42.2,30.23,WNW,293,2.6,2.6,59,0.00,,,0.00,WUHU216HW,2013-05-04 02:31:00,
2013-05-03 22:36:00,56.3,42.2,30.23,WNW,293,2.6,2.6,59,0.00,,,0.00,WUHU216HW,2013-05-04 02:36:00,
2013-05-03 22:59:00,55.4,41.8,30.22,SSE,158,5.8,5.8,60,0.00,,,0.00,WUHU216HW,2013-05-04 02:59:00,
2013-05-03 23:00:00,55.4,41.8,30.22,SSE,158,5.8,5.8,60,0.00,,,0.00,WUHU216HW,2013-05-04 03:00:00,
2013-05-03 23:05:00,55.4,41.8,30.22,SSE,158,5.8,5.8,60,0.00,,,0.00,WUHU216HW,2013-05-04 03:05:00,
2013-05-03 23:29:00,54.9,41.7,30.22,West,270,0.8,0.8,61,0.00,,,0.00,WUHU216HW,2013-05-04 03:29:00,
2013-05-03 23:31:00,54.9,41.7,30.22,West,270,0.8,0.8,61,0.00,,,0.00,WUHU216HW,2013-05-04 03:31:00,
2013-05-03 23:36:00,54.9,41.7,30.22,West,270,0.8,0.8,61,0.00,,,0.00,WUHU216HW,2013-05-04 03:36:00,
2013-05-03 23:59:00,54.4,41.6,30.22,North,0,0.8,0.8,62,0.00,,,0.00,WUHU216HW,2013-05-04 03:59:00,